Wind_Speed
56 54 53 51 49 48 47 46 45 44 43 42 42 40 39 38 37 37 37 36 36 36 35 35 35 35 34 34 33 33 33 33 34 34 35 35 36 37 37 38 38 39 39 39 39 39 38 37 36 36 35 31 27 24 22 21 20 20 18 18 19 20 21 23 25 26 27 28 30 31 33 34 34 34 32 27 29 33 34 34 31 28 25 23 24 23 24 24
57 55 54 53 51 50 48 47 46 46 45 44 43 42 41 40 39 38 38 37 37 37 36 36 36 36 35 35 34 34 34 34 35 36 36 37 37 38 39 39 40 40 40 40 40 40 39 38 37 36 33 30 26 23 22 21 20 19 17 17 17 18 19 20 23 24 25 26 27 28 30 32 32 34 34 31 30 31 33 35 33 31 28 26 25 22 22 23
58 57 55 54 53 51 50 49 47 46 46 45 44 43 42 41 40 39 39 38 38 38 38 38 37 37 37 36 36 35 36 36 37 38 38 38 39 40 40 41 41 41 41 41 41 40 40 39 37 34 31 28 25 22 21 21 20 18 16 16 16 17 17 18 20 22 23 23 24 26 28 30 31 33 34 34 33 30 30 32 32 32 30 30 28 25 23 22
59 58 57 55 54 52 51 50 49 48 46 46 45 44 43 42 41 41 40 40 39 39 39 39 39 38 38 37 37 37 37 38 38 39 39 40 41 41 41 42 42 42 42 42 41 41 40 38 36 32 29 27 24 22 21 20 20 19 16 15 15 15 16 17 18 19 20 21 23 25 26 27 29 31 32 33 34 32 30 30 31 31 31 32 30 28 27 24
60 59 57 56 55 53 52 51 50 49 48 47 46 45 44 43 43 42 41 41 41 40 40 40 40 40 39 39 39 39 39 39 40 40 41 42 42 42 42 42 43 43 42 42 41 41 39 37 34 30 27 25 24 22 21 20 19 19 17 15 14 14 15 16 17 18 18 19 22 23 24 26 25 26 29 30 32 32 31 30 31 30 31 33 31 30 29 28
60 59 58 57 55 54 53 52 51 50 49 48 47 46 45 44 44 43 43 42 42 42 42 41 41 41 41 41 41 40 40 41 41 41 42 42 43 43 43 43 43 43 42 42 41 40 38 34 31 28 26 24 23 22 21 20 19 19 16 14 14 14 14 15 16 17 18 19 20 21 23 24 25 25 26 28 29 31 31 31 31 31 32 32 32 32 31 31
61 60 59 58 56 55 54 53 52 51 50 49 48 47 46 45 45 44 44 44 44 43 43 42 42 42 42 42 41 41 42 41 41 42 42 43 43 43 43 43 42 42 42 41 40 38 35 32 29 27 24 23 23 22 22 21 20 19 17 15 14 14 13 14 15 16 18 19 20 20 22 23 24 26 26 26 27 28 30 31 32 32 33 32 32 31 31 32
62 61 60 58 57 55 54 53 52 51 50 49 49 48 47 46 45 45 45 45 44 44 44 43 43 42 42 42 42 42 42 42 42 42 42 43 43 42 42 42 42 41 40 39 38 36 33 30 28 26 24 23 23 22 22 23 22 21 19 16 15 14 14 14 15 15 16 18 20 20 21 22 23 24 25 25 25 26 28 30 32 32 32 34 33 32 31 32
62 61 60 59 58 56 55 54 53 51 50 50 49 48 47 46 46 45 45 45 45 44 44 43 43 43 42 42 42 42 42 42 41 42 42 42 42 41 41 41 40 39 39 37 36 33 31 29 27 25 24 23 23 23 23 23 23 22 21 19 17 15 15 14 14 15 15 16 19 21 21 21 22 22 22 23 24 26 27 28 29 29 29 30 32 33 32 33
62 61 60 59 58 57 55 54 53 52 51 50 49 48 47 46 46 45 45 45 45 44 44 43 43 43 42 42 42 42 42 41 41 41 41 41 40 40 39 39 38 37 36 35 33 32 30 28 27 25 24 23 23 24 25 24 24 23 22 21 18 17 16 15 15 15 15 16 18 20 21 21 22 22 21 21 22 23 25 27 27 25 26 27 27 28 30 31
61 61 60 59 58 57 56 54 53 52 51 50 49 48 47 46 45 45 45 45 44 44 43 43 42 42 42 42 42 41 41 40 40 40 40 39 39 38 37 37 36 35 34 33 31 30 29 28 26 24 24 24 24 24 26 26 25 24 23 22 20 18 17 17 16 16 15 16 18 19 20 20 21 21 22 22 22 22 21 23 23 23 25 25 24 25 26 27
60 60 60 59 58 57 56 55 54 53 51 50 49 48 47 46 45 44 44 44 43 43 43 42 42 41 41 41 41 40 40 39 39 39 38 37 36 36 35 34 34 33 32 31 30 30 29 28 26 24 24 24 25 25 26 26 26 25 24 23 21 19 18 19 18 17 15 15 18 19 19 19 20 21 22 23 24 22 21 21 21 22 22 20 21 23 23 24
58 59 59 59 58 56 55 54 54 53 51 49 48 47 46 45 44 43 43 43 42 42 42 41 40 40 41 40 40 39 39 38 37 36 36 35 34 33 32 32 32 31 30 30 29 29 29 27 25 24 24 25 25 26 26 26 26 25 25 23 22 20 19 20 18 16 16 16 18 20 19 19 20 22 23 24 25 23 22 23 23 22 22 19 18 18 18 21
57 58 58 58 57 56 55 54 53 52 50 49 48 46 45 44 43 42 42 41 41 40 40 40 39 40 40 39 38 38 37 36 35 34 34 33 32 31 30 30 30 30 29 29 29 29 28 27 25 24 25 25 25 26 26 26 27 27 25 23 22 21 19 19 18 16 17 19 20 20 20 20 20 22 23 24 25 25 24 24 22 20 20 20 20 19 17 19
56 57 57 57 57 56 54 54 52 51 49 48 47 45 44 43 41 41 40 40 40 39 39 39 38 38 38 37 37 36 34 33 33 33 32 31 30 29 29 29 29 29 29 29 29 28 27 26 25 24 25 25 25 25 25 26 27 27 25 23 21 21 20 19 19 17 17 19 22 22 21 21 21 22 22 22 23 24 25 24 22 19 18 19 21 22 19 18
54 55 56 57 57 55 54 53 51 50 48 47 45 43 42 41 40 40 39 38 38 38 38 37 37 37 36 35 34 32 32 32 32 31 31 30 28 28 28 28 28 28 28 28 27 27 26 25 24 24 25 24 24 25 25 25 27 27 24 22 21 21 21 20 19 18 16 18 21 22 22 22 22 22 22 22 22 23 26 25 23 23 22 21 22 22 21 20
53 54 55 56 56 55 54 52 50 49 47 45 43 42 41 40 39 39 37 36 36 37 36 36 36 34 32 32 32 32 32 31 31 30 30 28 27 27 27 26 26 27 26 26 26 25 25 24 24 24 24 24 24 25 26 26 26 26 24 23 22 21 21 20 19 18 17 17 19 20 21 21 21 22 23 23 23 23 25 26 26 26 24 24 23 23 24 23
51 52 54 55 55 55 53 52 50 48 46 44 42 41 40 39 38 37 36 35 35 35 34 34 33 31 31 32 33 32 31 30 30 29 28 27 26 26 26 25 25 25 24 24 24 24 23 23 23 24 24 24 24 24 25 25 25 26 25 24 24 23 23 21 19 20 19 18 20 21 20 21 21 21 22 23 23 22 23 25 27 26 24 24 24 23 23 23
49 51 53 54 55 54 53 51 49 47 45 43 41 40 40 38 37 36 35 34 33 33 33 32 31 31 32 32 32 31 30 29 29 28 27 26 25 25 24 24 23 23 22 22 22 23 22 22 23 23 24 24 24 24 24 24 25 26 26 26 25 25 25 25 22 21 22 21 22 22 20 20 19 19 21 22 23 23 23 25 25 24 24 24 25 23 22 22
48 49 51 53 54 53 53 51 49 47 45 43 41 41 40 37 35 34 33 32 32 32 32 31 31 31 31 30 31 30 30 29 28 28 27 25 25 25 24 23 22 22 21 22 22 22 22 23 23 23 24 25 24 24 24 25 26 27 28 27 27 27 26 27 25 23 23 22 21 22 20 19 17 17 20 22 23 24 24 25 24 23 24 24 24 24 23 23
46 48 50 51 52 53 52 50 49 47 45 43 41 40 38 36 35 34 33 32 32 32 30 30 30 30 29 30 31 30 29 29 28 28 26 25 25 25 24 23 23 22 22 23 23 23 24 24 25 25 25 26 26 26 26 26 27 28 29 28 28 29 28 27 26 24 23 22 21 20 20 18 16 16 19 20 20 22 23 23 23 24 25 22 22 24 23 24
45 46 48 50 51 51 51 50 48 47 45 43 41 40 39 38 37 36 34 33 32 31 30 30 30 29 30 30 30 29 29 29 28 28 27 26 25 25 25 24 24 24 23 24 25 25 26 26 27 27 28 28 27 27 27 27 28 29 30 30 29 30 30 28 26 24 23 23 22 21 19 17 16 17 18 18 17 19 21 21 20 22 23 20 21 23 25 27
44 45 46 48 49 50 49 49 47 46 44 43 42 41 40 39 37 35 34 33 32 31 30 30 29 29 30 29 29 29 29 29 28 28 27 27 26 26 25 25 25 25 25 25 26 26 27 28 28 28 29 29 29 29 29 29 30 30 31 31 30 30 30 27 26 25 25 24 23 22 19 16 16 16 15 16 16 16 17 18 19 21 19 19 21 23 26 28
42 43 44 46 47 48 48 47 46 45 44 43 43 41 40 38 37 36 35 34 32 31 30 30 30 29 29 28 28 29 29 29 29 28 28 27 27 27 26 26 26 26 26 26 27 28 28 29 29 29 29 30 30 31 31 31 31 31 32 32 30 30 30 28 25 23 24 25 24 23 19 16 16 15 12 13 13 12 14 15 16 18 18 19 22 23 24 26
41 42 43 44 45 46 46 46 45 45 44 43 42 40 39 38 37 36 35 34 32 31 31 30 30 29 28 28 28 29 29 29 29 29 28 27 27 27 27 27 27 27 27 26 27 29 29 30 30 30 30 30 31 32 32 32 32 32 32 31 30 31 29 28 27 23 22 25 24 22 19 16 16 14 12 13 11 12 16 14 10 12 16 19 20 20 22 23
40 41 42 43 44 45 45 45 44 44 43 42 41 40 39 38 36 35 34 33 32 31 31 31 30 29 29 29 28 28 28 29 29 29 28 28 28 28 28 28 28 27 27 27 28 29 29 29 30 30 30 30 30 32 32 32 32 31 32 31 28 29 29 27 26 24 23 23 23 22 20 17 15 13 12 14 14 15 17 17 14 12 11 14 18 19 20 21
39 41 42 43 44 44 44 44 43 42 41 40 40 39 38 37 36 35 34 34 33 32 32 31 30 30 29 28 28 29 29 29 29 28 28 29 28 29 28 28 28 28 28 28 28 29 29 29 29 30 30 30 30 31 32 32 31 30 31 31 28 28 28 26 24 22 21 21 21 21 20 17 14 12 12 13 14 15 15 17 21 19 11 10 16 17 19 22
39 40 41 42 42 42 42 42 42 41 41 40 39 39 38 37 36 35 35 34 33 33 32 31 30 30 29 29 29 30 29 28 29 29 29 28 28 29 29 28 28 28 28 28 28 28 28 28 29 30 30 30 31 30 30 31 31 29 29 30 28 27 26 24 21 20 19 19 19 20 20 17 12 11 11 12 12 12 13 17 22 24 19 15 19 20 20 22
38 39 39 40 41 41 41 41 41 40 40 39 39 39 38 37 36 35 35 34 34 33 32 31 30 30 30 30 30 29 28 29 29 29 28 28 28 29 28 28 28 28 28 28 28 28 28 28 29 30 30 30 30 30 29 29 30 30 28 27 27 25 24 22 20 19 19 18 18 19 20 17 11 9 10 9 10 11 13 18 23 24 22 19 21 25 24 24
37 38 38 39 40 40 40 39 39 39 39 39 39 39 38 37 36 35 35 34 33 33 32 31 30 31 30 30 30 29 29 29 29 28 28 28 28 28 28 28 28 28 28 28 28 28 28 27 28 29 29 29 29 29 28 29 29 27 26 24 24 24 23 21 19 19 19 18 18 18 19 18 12 8 7 8 12 13 14 17 21 21 19 18 21 25 26 25
37 37 38 38 39 39 38 38 38 38 39 39 38 38 37 36 35 34 34 34 33 32 32 31 31 31 31 31 30 29 29 28 28 28 27 28 27 28 28 28 28 28 28 28 28 28 26 26 27 27 27 27 27 27 26 26 26 25 24 24 24 24 23 21 21 20 19 18 18 16 17 18 13 8 6 10 14 13 13 15 16 16 16 16 20 21 21 22
35 36 37 37 37 37 37 37 37 37 37 37 37 36 35 34 33 33 34 33 32 32 32 31 32 31 31 31 30 29 29 28 27 27 27 27 27 28 28 28 29 28 28 28 27 26 24 24 26 24 23 25 25 24 24 23 23 23 23 23 23 22 21 20 20 19 18 18 17 16 17 17 13 9 8 11 12 9 10 14 15 16 15 16 20 20 18 18
33 34 34 35 35 35 35 35 35 36 36 36 35 35 34 33 33 33 33 32 32 32 32 31 31 31 31 30 29 29 28 27 27 27 27 28 27 28 29 29 29 28 28 28 25 23 21 22 25 22 20 24 24 23 24 22 21 22 22 21 20 19 19 19 18 15 14 15 15 15 16 15 11 8 6 7 9 10 12 16 18 18 17 16 19 20 19 18
34 34 34 34 34 35 35 34 34 34 34 34 34 33 32 31 32 33 32 32 32 32 31 31 31 31 30 29 28 28 27 27 27 27 28 28 28 29 29 28 28 27 26 25 23 22 20 20 23 21 19 22 23 22 22 21 20 21 21 20 18 17 17 17 15 12 11 13 13 14 13 12 9 3 5 7 11 12 11 14 17 17 16 15 16 15 16 17
35 34 34 34 34 34 34 34 34 33 33 33 31 31 30 28 29 31 30 30 31 30 31 30 30 30 29 28 28 27 27 28 28 29 29 29 29 28 27 27 26 25 23 20 19 19 18 20 22 21 19 21 21 21 21 20 19 18 19 19 17 15 15 14 12 11 12 12 14 14 10 7 4 3 8 12 11 11 9 11 13 15 15 14 15 15 15 16
34 34 34 34 34 34 34 34 33 32 31 30 29 29 29 26 26 28 28 29 30 30 30 29 29 29 28 28 28 27 28 29 29 29 29 28 28 26 26 26 25 24 21 17 17 17 17 19 21 20 20 20 20 20 20 19 16 15 16 16 14 14 14 14 13 12 12 11 12 11 4 2 6 8 10 12 10 11 10 9 11 14 15 14 15 17 19 20
33 33 33 33 33 33 33 32 31 29 28 28 28 28 28 26 26 27 27 27 28 28 28 28 28 28 27 28 28 29 30 29 29 29 27 26 25 24 25 25 23 21 18 17 17 17 17 19 19 17 16 17 19 18 17 15 12 11 12 10 9 10 11 11 9 8 8 9 11 9 3 6 9 11 12 10 9 10 11 11 12 15 17 17 16 17 19 22
32 32 32 31 31 31 30 29 28 27 27 28 27 26 25 25 25 25 26 27 27 27 28 27 27 27 28 28 28 29 29 27 27 27 25 24 23 23 23 21 19 18 16 17 18 18 20 20 18 15 12 12 13 12 11 9 7 7 7 6 5 6 6 6 6 4 3 6 8 5 5 8 9 11 13 12 12 13 14 15 16 17 20 22 21 18 19 23
30 30 30 29 28 27 27 26 26 25 25 24 24 24 25 25 25 24 25 26 26 27 27 26 26 28 29 27 27 28 26 25 25 25 23 21 20 21 20 17 17 16 16 18 19 19 20 18 14 11 8 7 8 7 6 6 5 6 6 4 5 6 5 5 5 5 3 2 3 1 4 7 8 10 13 14 15 16 18 19 19 20 23 26 26 22 21 24
29 28 27 26 26 25 24 23 23 23 22 23 23 23 24 25 26 26 26 27 27 27 27 27 27 28 27 25 24 25 23 22 23 22 20 20 20 20 18 16 16 17 17 19 17 16 16 12 8 6 3 3 5 6 5 4 4 5 5 3 3 4 4 3 5 7 6 3 3 2 4 6 8 11 13 13 13 14 17 20 22 23 25 28 29 27 25 26
27 26 24 24 23 22 21 21 21 21 21 22 23 22 22 24 26 27 28 29 29 29 27 26 26 25 24 24 22 21 21 21 21 20 18 19 18 17 15 14 15 16 15 14 11 10 9 6 3 2 1 1 3 5 4 4 4 4 4 4 3 3 3 3 5 7 6 5 5 5 6 7 10 11 12 12 12 12 15 18 20 21 23 25 27 27 26 26
24 23 22 21 20 19 19 19 19 19 21 23 23 23 23 24 25 27 28 28 28 28 26 25 24 23 23 22 19 19 20 20 19 17 15 14 12 10 11 11 12 11 8 6 5 4 3 3 3 1 1 1 2 4 4 4 5 5 5 5 4 4 3 3 3 4 4 5 6 4 6 8 11 11 11 13 13 13 14 16 18 19 20 22 23 23 24 24
22 21 20 19 18 18 18 18 19 21 22 22 21 21 23 23 24 26 26 27 27 26 24 23 22 21 21 20 18 18 18 17 16 13 10 8 8 8 8 8 8 6 4 4 4 4 4 5 4 3 2 1 2 4 5 5 6 7 7 6 6 5 5 5 4 4 4 5 4 2 4 8 9 10 13 15 16 16 16 17 19 19 20 21 22 23 24 22
20 19 18 18 18 19 19 20 20 20 18 18 18 19 20 21 21 22 22 22 23 22 22 21 20 20 19 18 16 15 13 12 11 9 7 7 8 8 7 7 6 6 5 5 5 4 4 4 4 4 2 2 4 5 6 6 6 7 8 8 7 7 7 6 6 5 5 6 5 4 7 8 8 10 13 15 16 17 17 19 20 20 20 20 21 23 23 21
20 20 20 21 21 22 21 19 17 15 14 15 15 15 15 16 16 16 17 18 19 19 18 17 16 16 15 14 12 11 10 10 10 8 8 8 8 8 7 7 7 6 5 5 5 5 5 4 4 4 4 5 7 7 7 8 8 8 9 10 9 8 8 9 9 8 8 8 7 7 9 11 11 11 12 12 14 16 17 20 22 23 23 23 23 23 23 21
24 23 23 23 22 20 18 16 14 14 13 13 13 13 13 13 11 11 12 14 14 14 13 13 12 12 12 12 12 11 11 11 10 9 8 8 8 8 8 7 7 6 5 5 5 5 6 6 5 6 6 6 8 8 9 10 10 10 11 12 11 11 11 11 12 12 11 11 10 10 11 12 13 16 14 12 13 15 16 18 21 22 22 23 25 25 23 22
24 23 22 21 19 18 17 16 14 13 12 12 12 13 12 11 10 10 11 12 12 12 12 12 13 13 12 12 11 11 11 11 10 9 9 8 8 7 7 7 7 6 5 5 5 5 6 6 7 7 7 7 8 9 10 10 11 11 12 13 13 13 13 14 15 15 15 15 13 13 15 15 13 16 18 17 16 16 17 18 20 22 22 23 25 25 24 24
21 20 20 19 18 18 17 16 14 13 12 12 12 12 11 11 12 13 13 13 13 14 14 13 14 13 12 12 11 11 11 11 10 10 10 9 8 7 7 6 6 6 6 6 6 6 6 7 8 8 8 9 10 10 11 12 13 14 14 15 15 15 15 16 17 18 17 18 17 16 18 19 17 17 19 20 19 19 21 21 22 25 27 27 26 26 26 27
19 19 18 18 17 17 15 14 13 13 12 12 12 11 11 12 13 14 14 15 15 15 15 14 14 14 13 13 13 12 12 11 10 9 9 8 7 6 6 5 5 5 6 6 6 7 7 7 7 8 10 11 11 12 13 14 15 16 18 18 18 19 19 19 20 21 20 20 21 20 19 21 22 22 22 23 23 24 25 26 27 29 30 30 29 29 30 31
17 18 18 18 17 15 14 13 13 13 13 13 12 12 12 13 13 14 14 14 15 15 15 15 14 14 14 14 13 12 11 10 9 8 7 6 5 5 5 4 4 4 5 6 6 7 8 9 9 10 11 13 13 14 15 16 17 19 21 21 22 22 23 23 24 25 25 24 24 24 23 23 25 26 26 26 27 28 29 30 31 33 34 34 34 34 35 35
17 17 18 18 17 15 14 13 13 14 14 14 14 13 13 13 13 14 14 14 14 14 14 14 14 13 13 12 11 11 10 10 8 7 6 6 5 5 4 4 4 4 5 6 7 9 10 11 11 12 14 15 15 15 17 18 19 20 22 24 25 24 24 26 26 26 27 27 28 28 28 28 28 29 28 29 31 31 32 34 35 36 37 37 37 38 39 39
18 17 18 18 17 16 15 15 15 15 15 14 14 14 14 13 13 13 13 13 13 13 13 13 13 13 12 12 11 11 10 9 8 7 6 5 5 4 4 4 4 5 6 7 9 10 11 12 13 14 16 17 16 17 20 21 21 21 24 26 26 24 25 28 28 27 27 29 30 31 32 32 31 32 32 34 36 36 37 39 39 39 39 41 42 42 42 43
Wind_Direction
230 231 232 232 232 233 235 236 238 240 241 243 244 246 247 248 249 251 253 254 256 258 260 262 263 265 267 268 270 272 274 276 278 279 281 283 285 287 289 291 293 294 296 298 299 300 301 303 304 304 303 300 296 292 290 287 284 279 274 268 262 256 251 249 248 247 245 242 241 239 239 239 238 238 239 244 249 246 245 246 247 248 252 254 254 251 248 248
230 231 231 232 232 233 234 235 237 239 240 242 244 245 246 248 249 251 253 254 256 258 260 261 263 265 267 269 270 272 274 276 277 279 281 283 285 287 288 290 292 294 295 297 298 299 301 302 303 302 300 297 293 289 288 286 284 281 278 274 266 258 253 249 248 247 246 244 243 241 240 240 239 239 238 238 243 245 245 246 246 246 249 254 255 253 249 246
229 230 231 231 232 233 233 234 236 238 239 241 243 244 246 247 249 250 252 254 256 258 259 261 263 265 267 269 270 272 274 276 278 279 281 283 285 286 288 290 292 293 295 296 298 299 300 301 301 300 297 294 290 288 287 287 286 284 281 277 269 261 255 251 248 248 247 246 245 243 241 241 240 240 240 239 240 243 245 245 246 246 247 250 251 252 251 248
229 230 230 231 231 232 233 234 235 237 238 240 242 244 245 247 249 250 252 253 255 257 259 261 263 265 267 268 270 272 274 276 278 279 281 283 284 286 288 290 291 293 295 296 297 298 299 300 299 297 294 290 288 287 286 287 288 286 283 279 274 268 261 256 252 251 250 246 243 242 241 241 241 241 242 242 242 243 244 245 247 248 248 248 250 250 248 247
228 229 230 230 231 232 232 233 235 236 237 239 241 243 245 246 248 250 252 253 255 256 258 260 262 264 266 268 270 271 273 276 277 279 281 282 284 286 288 290 291 293 294 295 296 297 298 298 297 294 291 288 286 286 287 287 287 286 284 282 277 270 263 260 256 253 251 246 242 242 242 242 241 242 242 242 244 244 245 247 246 246 247 249 250 249 248 250
227 228 229 230 230 231 232 233 234 235 237 238 240 242 244 245 247 249 251 253 255 256 258 260 262 264 266 268 269 271 273 275 277 279 280 282 284 286 288 289 291 292 294 295 296 296 297 296 294 291 289 287 286 287 287 287 285 283 281 280 278 269 261 258 256 253 252 249 247 244 242 243 241 241 243 243 244 244 245 247 246 246 247 248 250 250 250 253
226 227 229 230 230 231 231 232 234 235 236 238 239 241 243 245 246 248 251 253 254 256 258 259 261 263 265 267 269 271 273 274 276 278 280 282 284 286 288 289 291 292 293 294 295 295 295 293 291 289 286 285 285 285 286 285 284 283 280 278 275 270 261 255 253 251 251 251 249 246 244 243 241 242 244 245 244 244 245 247 247 247 249 249 251 252 251 252
226 226 227 229 230 230 231 232 233 234 236 237 239 241 242 244 246 248 250 252 254 256 257 259 261 263 265 267 269 271 272 274 276 277 279 281 284 286 288 289 291 292 293 293 293 293 292 291 289 287 285 283 283 283 284 284 284 283 281 278 274 270 264 257 253 250 248 249 248 246 245 244 243 242 243 245 245 244 245 247 246 246 249 252 254 254 253 252
225 225 226 228 229 230 231 232 233 234 235 237 238 240 242 244 245 247 249 251 253 255 257 259 260 262 264 266 268 270 271 273 275 277 279 281 284 286 287 289 290 291 291 292 292 291 290 289 287 285 285 283 283 282 282 281 282 282 281 279 274 270 266 261 256 252 246 246 247 244 243 244 245 245 245 245 246 245 245 246 246 246 249 252 254 254 253 253
224 225 225 226 227 229 230 231 232 233 235 236 238 240 241 243 245 247 249 251 253 255 256 258 260 262 264 265 267 269 271 272 275 277 279 281 283 285 287 288 289 290 290 290 290 290 288 287 285 285 284 283 282 281 280 279 279 280 280 280 278 275 272 267 262 257 251 246 245 243 243 242 242 244 244 244 244 245 246 246 246 246 248 251 253 254 254 254
224 224 225 225 226 227 229 230 232 233 234 236 237 239 241 243 245 247 249 250 252 254 256 258 260 262 263 264 266 268 270 272 275 277 279 281 283 285 286 287 288 288 289 289 289 288 287 286 285 285 284 282 281 280 280 279 278 279 279 278 278 277 276 273 267 262 255 251 249 245 244 243 242 241 239 241 242 243 247 248 246 246 246 250 254 254 254 254
223 223 224 225 226 226 228 229 231 232 233 235 237 239 240 242 244 246 248 250 252 254 255 257 259 261 262 264 266 268 270 272 274 277 279 281 282 284 285 286 286 287 287 288 287 286 286 285 286 286 285 283 281 280 279 280 280 279 279 278 278 278 277 274 271 267 260 252 251 248 245 244 244 243 239 240 244 243 247 251 249 245 244 247 253 254 253 254
223 223 223 224 225 225 227 228 230 231 233 234 236 238 240 241 244 246 248 250 251 253 255 256 258 260 261 264 266 268 270 273 275 276 278 280 281 283 284 284 285 286 286 286 285 285 285 286 287 287 285 283 282 281 280 280 280 280 279 280 280 279 277 274 271 270 266 258 253 251 248 245 244 245 243 242 247 246 245 249 248 243 241 242 250 254 252 251
222 222 222 222 224 224 225 227 228 230 232 233 235 237 239 241 242 245 247 249 251 253 254 256 257 259 261 264 266 268 270 273 274 275 277 279 281 282 283 283 283 284 284 284 285 285 286 288 289 288 285 284 284 283 283 283 282 280 280 281 282 281 278 276 274 269 264 262 260 255 250 247 245 246 245 242 247 249 246 247 248 241 236 236 241 247 250 251
221 221 221 221 222 223 225 226 227 229 230 232 234 236 237 239 241 243 246 248 250 252 254 256 257 259 262 264 266 269 271 272 273 275 276 278 279 281 282 282 283 284 284 284 285 286 288 289 289 288 286 286 286 285 284 285 284 282 282 283 283 283 279 276 275 268 262 263 262 260 256 254 249 248 247 242 243 250 251 250 251 247 239 234 235 238 241 246
220 220 220 220 221 222 224 225 226 228 229 231 233 234 236 238 240 242 244 247 249 252 254 255 257 259 262 265 267 269 269 270 272 273 275 277 279 281 281 282 284 284 284 285 287 288 289 290 289 288 287 287 287 286 284 285 285 286 287 287 286 286 284 280 276 271 267 266 264 263 261 257 252 250 249 247 245 248 252 251 250 249 242 238 235 232 230 233
218 218 218 219 220 221 223 224 225 227 228 230 231 233 235 237 239 241 244 246 248 251 253 255 258 261 263 264 265 265 266 268 271 272 275 277 279 279 280 283 284 284 286 287 289 289 289 289 289 288 288 287 286 286 287 287 288 290 293 295 293 291 287 284 283 278 272 269 268 265 262 258 255 255 255 254 251 248 252 253 251 248 243 241 239 232 229 230
216 216 216 217 218 220 222 223 224 226 227 229 230 233 235 236 239 241 243 245 248 250 253 255 258 259 259 260 262 264 267 269 271 273 275 277 278 279 281 282 283 285 287 288 289 289 289 289 289 288 288 287 287 290 292 292 293 296 298 298 297 295 292 289 289 288 284 282 278 271 266 264 262 261 260 257 253 248 249 250 249 246 242 240 241 237 232 233
215 214 214 215 217 218 220 222 223 225 226 227 229 232 234 235 237 240 242 245 247 250 252 254 256 256 258 261 263 265 266 268 269 271 273 276 277 278 280 282 283 286 287 288 288 288 289 289 289 289 288 289 292 295 297 297 298 299 299 300 299 298 297 294 294 294 291 290 287 280 275 271 269 265 261 255 251 246 242 242 243 243 242 239 239 238 231 230
213 212 212 214 215 217 219 221 222 224 225 226 228 231 233 235 238 241 243 245 247 249 252 254 255 257 260 261 262 263 265 266 267 269 272 274 275 276 279 281 282 284 286 287 287 288 289 289 288 289 290 292 295 296 297 297 297 297 297 298 297 296 294 293 295 294 290 289 287 284 280 275 271 266 259 252 247 245 241 240 242 244 242 240 240 242 237 229
212 211 211 212 214 216 218 219 221 223 224 226 228 231 234 235 237 239 240 243 246 249 252 254 255 258 259 259 260 262 264 265 266 268 270 271 272 275 277 278 281 283 285 286 286 288 288 288 288 288 290 292 293 294 295 295 295 295 295 294 294 293 292 291 292 292 291 291 288 286 283 280 274 265 259 253 247 245 242 238 240 246 246 242 240 241 242 236
210 209 209 210 212 215 217 218 220 222 224 226 228 230 232 234 235 238 240 243 246 249 251 253 256 257 258 259 260 261 262 263 264 266 267 269 271 273 275 278 280 282 284 284 285 287 287 288 289 290 291 292 294 295 295 296 295 294 294 293 293 293 293 295 295 296 297 295 292 288 286 287 280 266 258 252 243 239 240 235 232 242 247 243 237 234 238 240
209 208 208 209 211 213 215 217 219 221 223 225 227 229 232 234 236 239 241 242 245 248 251 253 255 256 257 259 260 261 261 262 262 264 266 268 270 273 276 278 279 281 282 284 286 287 287 288 289 292 294 296 297 297 297 296 295 295 294 294 296 296 296 299 300 304 303 298 295 291 291 292 283 272 262 251 243 235 234 231 226 230 234 234 231 228 234 240
207 207 207 208 209 212 214 216 218 220 222 224 227 229 232 234 235 237 239 241 243 247 250 252 254 256 258 260 260 260 259 260 262 264 266 268 271 273 276 278 280 281 282 284 286 287 287 289 291 293 295 297 297 297 296 295 295 296 295 296 299 298 298 300 300 302 300 296 294 292 293 290 280 276 270 257 248 232 221 221 225 227 228 232 231 226 232 242
206 205 205 207 208 211 213 215 217 219 221 223 226 228 231 233 235 237 239 241 243 246 249 251 253 255 257 258 258 259 260 261 262 264 266 269 271 273 275 278 279 281 282 284 284 286 288 290 292 293 293 294 295 295 295 295 295 296 296 298 300 299 299 300 299 298 294 291 291 289 288 283 276 274 265 252 241 222 210 206 210 221 227 234 238 234 234 242
204 204 204 206 207 210 212 213 216 218 221 223 225 227 230 231 234 235 237 239 241 244 247 250 252 254 256 258 260 261 261 261 262 265 267 269 270 273 275 277 279 281 282 282 283 284 287 289 291 291 292 292 293 293 294 294 295 296 296 296 297 297 297 297 296 296 292 289 289 287 282 277 275 273 260 244 234 223 212 201 200 214 219 225 234 235 232 231
202 203 204 205 207 209 211 213 215 217 219 222 224 226 229 231 232 234 235 238 240 242 245 249 251 254 257 259 261 260 260 261 264 266 267 268 271 273 275 277 279 280 281 282 283 284 286 288 289 289 291 291 291 291 292 293 294 295 295 295 294 294 293 293 293 293 291 289 287 285 283 279 277 272 256 239 232 230 220 206 210 221 223 216 223 227 228 226
201 202 203 205 207 208 210 213 215 216 218 220 222 225 227 229 230 232 234 237 239 242 245 249 252 255 257 259 260 260 262 264 265 265 267 270 272 273 275 277 278 279 281 282 283 284 286 287 287 288 288 288 288 288 290 292 292 292 292 293 293 291 289 290 291 290 289 288 287 285 284 282 281 272 256 237 228 226 216 206 209 218 223 222 221 219 217 215
199 200 202 204 206 208 210 212 214 216 218 219 221 223 226 228 229 231 234 236 239 242 245 249 253 254 256 257 260 262 264 264 264 267 270 271 272 273 275 277 278 279 281 282 283 285 286 286 287 287 287 287 287 288 289 289 290 290 290 290 289 287 287 288 289 288 287 287 287 287 285 284 281 274 263 240 219 211 209 206 204 210 219 221 220 217 212 206
197 198 200 203 205 207 209 211 213 215 217 218 221 223 225 227 229 231 234 236 239 243 246 249 253 254 256 258 261 262 263 264 267 269 270 271 273 275 275 276 278 279 281 282 283 284 286 287 287 287 287 287 286 286 287 287 286 287 288 288 285 284 285 286 286 286 286 287 286 285 284 283 276 267 265 241 220 209 210 212 207 209 218 220 219 217 214 211
195 197 199 201 204 206 207 209 211 213 216 218 220 223 225 227 229 232 235 237 240 243 247 249 251 254 257 259 261 263 264 267 269 269 271 272 273 274 275 277 279 280 281 282 283 285 287 288 286 286 288 287 286 286 285 283 283 284 286 286 282 281 283 284 285 285 286 288 287 284 281 278 272 259 231 220 224 220 217 222 222 224 226 221 220 219 217 218
194 196 198 200 203 205 206 208 210 212 215 217 219 222 224 227 229 231 234 237 240 243 247 249 252 254 257 260 263 265 267 268 269 270 272 272 273 275 277 278 279 280 282 282 284 286 287 286 284 285 288 287 286 285 283 282 283 286 287 286 283 284 286 288 288 289 292 293 291 287 281 280 278 263 227 213 224 228 220 218 220 227 228 220 217 216 217 221
193 195 198 200 202 204 206 208 210 212 213 216 218 221 222 225 228 231 234 237 240 244 247 250 253 256 259 262 265 266 268 270 271 272 272 273 275 277 278 279 280 281 282 282 284 283 281 283 283 281 282 285 286 285 285 287 287 287 289 290 291 294 296 295 293 295 296 294 292 285 281 288 292 268 232 210 209 215 223 221 220 226 229 226 222 217 217 221
191 193 196 198 201 203 205 207 209 211 213 215 217 220 222 225 229 232 235 239 242 245 249 252 256 259 262 264 266 268 270 271 272 273 274 276 277 278 279 280 280 281 281 283 284 279 274 275 278 279 280 283 284 285 289 293 293 292 293 296 298 301 304 301 298 294 291 289 283 276 276 288 299 268 211 209 196 197 215 225 228 232 233 233 237 234 225 226
189 191 194 196 199 202 204 206 208 210 213 215 217 219 221 225 231 235 238 242 245 248 251 254 257 261 263 266 268 270 270 271 273 274 276 277 278 278 279 278 278 278 281 285 283 280 278 274 275 280 283 283 286 290 295 298 298 296 295 298 300 301 302 300 297 290 286 287 278 273 278 280 270 220 226 229 205 190 210 234 238 238 241 244 249 252 247 243
189 191 193 196 198 201 203 206 208 210 213 214 217 220 222 225 232 237 241 245 247 250 253 256 259 262 265 267 269 270 271 273 275 276 277 277 277 278 277 276 275 276 278 278 275 276 279 276 276 279 280 283 290 295 299 301 302 297 292 295 300 303 302 298 294 286 282 287 278 273 285 183 191 200 223 231 212 199 219 251 253 240 240 244 241 240 242 242
189 191 193 195 198 201 204 206 208 211 212 214 217 220 223 228 233 237 242 247 250 253 255 258 260 264 266 267 269 271 273 275 276 276 276 275 276 276 275 274 274 273 271 267 265 266 268 271 277 283 284 285 291 297 303 303 303 296 289 291 300 305 308 306 300 286 270 263 261 255 181 158 185 201 215 226 222 215 222 238 243 239 238 240 240 235 236 236
188 191 193 196 199 201 204 206 208 210 212 215 219 222 225 230 234 239 244 248 251 254 255 259 262 265 266 268 271 272 274 274 274 274 273 272 272 272 271 271 270 269 264 259 259 259 263 271 281 292 299 297 298 306 309 305 310 310 303 305 315 318 327 328 321 308 267 247 261 252 172 179 204 220 230 236 229 219 221 229 234 236 238 243 250 249 245 242
188 190 193 196 199 201 203 206 208 211 215 219 223 226 228 230 235 241 246 249 253 256 258 262 265 266 267 269 271 271 271 271 270 270 269 268 268 268 267 264 260 259 254 253 254 256 265 277 287 296 306 315 317 318 310 313 335 334 326 329 334 331 338 343 333 322 314 301 316 311 192 210 225 235 244 244 237 229 230 236 239 239 240 245 251 256 256 251
186 189 192 194 197 200 203 205 209 213 217 222 226 230 233 234 238 244 248 252 256 259 261 263 264 265 266 266 265 266 267 265 264 264 263 262 261 261 261 255 250 250 249 252 257 261 269 281 289 295 319 9 338 317 315 335 347 339 335 338 325 311 308 310 303 303 309 316 313 245 208 228 239 247 254 249 243 243 244 248 250 249 249 250 252 257 261 258
184 186 189 192 194 198 201 206 210 214 220 225 229 234 238 240 243 247 250 254 257 258 259 259 260 261 262 259 256 257 258 257 257 258 257 258 259 258 255 249 244 246 249 254 262 264 264 265 263 269 146 80 326 313 330 343 337 339 342 342 336 314 307 290 269 279 287 285 274 225 204 244 261 260 263 258 253 258 263 266 267 265 263 260 259 260 261 261
181 183 186 190 193 197 201 207 214 220 226 229 230 234 239 242 244 246 248 250 252 252 252 251 250 250 251 250 247 246 249 250 252 252 251 254 255 246 238 235 236 240 245 246 244 231 210 182 164 164 165 188 303 314 326 329 330 337 332 331 340 337 335 326 299 300 295 289 285 232 211 251 262 259 266 274 281 287 288 288 289 287 281 274 270 268 266 265
177 180 182 187 192 198 204 210 215 220 223 226 228 232 236 239 240 240 242 243 244 243 242 241 239 238 240 241 240 242 244 245 246 245 242 235 220 209 209 210 216 215 195 185 183 161 159 162 161 172 192 243 298 304 309 313 323 327 323 327 332 328 326 325 325 334 325 319 328 294 243 256 264 275 283 282 288 298 300 298 299 298 291 284 279 273 270 267
174 178 182 187 191 197 202 206 210 213 215 219 223 228 231 234 236 237 237 236 235 233 231 230 229 230 233 235 235 236 235 233 233 226 206 189 182 182 181 180 186 183 175 178 165 154 174 181 178 192 211 266 279 288 298 298 300 305 308 313 315 312 312 310 310 314 314 321 334 318 291 285 292 301 290 278 281 291 294 294 297 298 295 290 285 280 277 273
175 178 181 184 188 192 194 197 202 207 210 214 219 223 227 230 233 233 231 227 224 223 221 219 220 221 223 223 221 218 211 206 207 198 182 174 171 172 171 173 184 184 182 186 175 180 207 215 212 214 218 239 256 270 280 282 284 289 294 297 298 298 298 298 301 304 303 306 312 301 291 294 299 294 279 274 284 286 286 289 293 295 296 295 290 286 284 278
173 175 177 179 183 186 189 193 198 202 208 212 214 217 219 219 218 217 216 214 211 210 205 201 201 200 200 201 200 196 190 187 189 189 186 183 178 177 177 181 192 195 197 201 196 204 223 232 237 242 245 245 252 263 271 273 278 282 285 288 292 294 295 296 299 303 302 302 305 299 292 294 299 294 286 282 282 278 278 282 284 288 292 291 287 284 282 276
169 172 174 177 182 184 189 197 197 197 206 212 212 215 214 207 199 194 194 193 189 187 185 183 184 183 184 188 189 188 185 185 189 190 192 194 190 187 189 189 193 203 212 217 220 227 237 247 255 262 268 270 270 274 277 279 281 283 283 285 289 292 293 293 295 300 303 303 304 301 295 294 292 288 285 283 278 272 271 272 273 277 280 279 279 278 276 273
170 176 180 182 187 190 193 196 194 192 202 208 210 212 210 202 195 189 185 183 182 180 180 182 183 180 180 183 187 191 190 191 195 195 194 195 192 191 196 195 192 200 212 224 235 241 248 255 263 272 278 282 285 287 289 290 291 293 291 291 293 293 293 292 293 297 300 301 302 300 296 296 293 286 282 283 283 280 276 274 273 274 274 272 272 272 270 269
175 185 189 190 192 194 194 194 192 192 196 201 204 205 204 201 198 194 190 186 186 185 184 186 186 182 183 187 190 193 193 193 197 197 193 191 187 187 192 194 195 204 215 229 244 256 266 270 276 282 285 289 294 296 296 297 298 298 298 299 299 299 299 298 297 299 299 299 299 297 294 295 295 291 286 284 285 285 282 278 276 276 276 275 274 273 271 269
184 191 194 193 193 192 190 189 189 189 190 191 193 195 196 195 192 192 190 186 186 186 184 185 186 184 186 189 189 188 190 192 194 192 189 187 185 185 189 196 210 225 241 254 267 279 286 290 295 295 292 294 299 298 297 298 298 297 298 299 300 301 302 301 300 301 302 301 299 297 295 293 291 289 287 284 283 284 283 280 277 276 275 275 276 277 276 274
193 196 194 191 190 187 183 183 184 186 185 184 184 185 186 187 185 184 182 179 178 179 178 179 182 182 183 185 184 184 187 190 189 188 189 188 190 191 197 210 227 243 257 268 274 281 284 288 294 294 291 294 298 298 295 295 294 294 294 294 297 300 299 297 297 299 300 299 298 297 297 296 292 290 288 287 286 285 282 280 278 275 274 275 277 278 278 277
196 195 191 188 186 183 179 180 182 183 182 182 182 180 179 180 181 179 174 172 171 171 172 173 174 176 178 181 183 185 187 190 190 192 193 196 203 209 216 226 238 247 256 264 270 276 280 284 289 291 291 294 298 297 295 295 297 295 293 293 296 297 294 294 295 297 296 296 295 295 295 294 292 290 288 286 286 285 282 280 279 278 278 279 280 280 279 278
Height
10961 10964 10967 10970 10973 10976 10979 10981 10983 10985 10988 10989 10991 10993 10995 10997 10999 11000 11001 11002 11003 11004 11004 11005 11005 11006 11007 11008 11009 11010 11011 11011 11011 11010 11010 11010 11010 11009 11009 11009 11009 11008 11008 11008 11007 11007 11006 11006 11006 11004 11003 11003 11002 11001 11001 11001 11000 11001 11001 11001 11001 11002 11002 11002 11002 11003 11003 11004 11005 11006 11007 11008 11009 11008 11007 11007 11007 11008 11009 11011 11012 11013 11013 11013 11014 11015 11016 11017
10957 10960 10963 10967 10970 10973 10976 10978 10980 10982 10985 10987 10988 10990 10992 10994 10996 10997 10998 10999 11000 11001 11002 11002 11003 11004 11005 11006 11007 11008 11009 11009 11008 11008 11008 11008 11007 11007 11007 11007 11006 11006 11006 11005 11005 11004 11004 11003 11003 11002 11000 10999 10999 10999 10998 10998 10998 10998 10999 10998 10999 10999 10999 10999 11000 11000 11000 11001 11002 11004 11004 11005 11006 11005 11006 11005 11004 11005 11007 11008 11010 11011 11012 11012 11012 11013 11015 11016
10953 10956 10960 10963 10966 10970 10973 10975 10977 10980 10982 10984 10985 10987 10989 10991 10993 10995 10996 10997 10998 10998 10999 11000 11001 11002 11003 11004 11005 11005 11006 11006 11006 11005 11005 11005 11005 11004 11004 11004 11004 11003 11003 11002 11002 11001 11001 11000 11000 10999 10998 10996 10996 10996 10996 10995 10995 10996 10996 10996 10996 10996 10997 10997 10997 10997 10998 10999 11000 11001 11001 11002 11003 11003 11003 11003 11003 11004 11005 11006 11008 11009 11011 11010 11011 11012 11013 11014
10949 10952 10956 10959 10963 10966 10969 10972 10974 10977 10979 10981 10982 10984 10986 10988 10990 10992 10993 10994 10995 10996 10996 10997 10998 10999 11000 11001 11002 11003 11003 11003 11003 11003 11002 11002 11002 11002 11002 11001 11001 11000 11000 10999 10999 10998 10998 10997 10996 10995 10995 10994 10994 10994 10993 10993 10993 10993 10994 10994 10994 10994 10994 10995 10995 10995 10996 10997 10997 10997 10998 10999 10999 11000 11000 11001 11001 11002 11003 11005 11006 11007 11008 11008 11009 11011 11011 11013
10945 10948 10952 10955 10959 10962 10966 10969 10971 10973 10975 10977 10979 10981 10983 10985 10987 10989 10990 10991 10992 10993 10994 10995 10996 10997 10998 10998 10999 11000 11001 11001 11000 11000 11000 10999 10999 10999 10999 10998 10998 10997 10997 10996 10996 10995 10995 10994 10993 10992 10992 10991 10991 10991 10991 10991 10991 10991 10992 10992 10992 10992 10992 10993 10993 10993 10994 10994 10994 10994 10996 10996 10997 10997 10998 10999 11000 11001 11002 11003 11004 11005 11006 11006 11007 11009 11010 11011
10941 10944 10948 10951 10955 10959 10962 10965 10968 10970 10972 10974 10976 10978 10980 10983 10984 10986 10987 10988 10989 10990 10991 10992 10993 10994 10995 10995 10996 10997 10998 10998 10998 10997 10997 10996 10996 10996 10996 10996 10995 10994 10994 10993 10993 10992 10991 10991 10990 10989 10989 10988 10989 10989 10988 10989 10989 10989 10989 10990 10990 10990 10991 10991 10991 10991 10991 10991 10992 10993 10993 10994 10994 10995 10995 10997 10998 10999 11001 11001 11002 11003 11003 11004 11005 11006 11008 11009
10937 10940 10944 10948 10951 10955 10958 10961 10964 10967 10969 10971 10973 10975 10977 10980 10981 10983 10984 10985 10986 10987 10988 10989 10990 10991 10992 10993 10993 10994 10994 10995 10995 10994 10994 10994 10994 10994 10993 10993 10992 10991 10991 10990 10989 10989 10988 10988 10987 10987 10987 10986 10986 10986 10985 10985 10985 10986 10987 10988 10988 10988 10989 10989 10989 10989 10990 10989 10990 10990 10991 10991 10992 10993 10994 10995 10996 10997 10998 10998 11000 11001 11001 11001 11002 11004 11005 11006
10932 10936 10940 10944 10948 10951 10955 10958 10961 10963 10966 10968 10970 10972 10974 10976 10979 10980 10981 10982 10983 10984 10985 10986 10988 10988 10989 10990 10990 10991 10991 10992 10992 10992 10991 10991 10991 10991 10990 10990 10989 10988 10988 10987 10986 10986 10985 10985 10985 10984 10984 10984 10984 10984 10983 10982 10982 10983 10984 10985 10986 10986 10986 10987 10988 10988 10989 10988 10987 10988 10989 10989 10990 10991 10992 10993 10994 10994 10995 10995 10996 10998 10999 10998 10999 11000 11002 11003
10928 10932 10936 10940 10944 10947 10951 10954 10957 10960 10963 10965 10967 10969 10971 10973 10976 10977 10978 10979 10980 10981 10982 10984 10985 10986 10987 10987 10988 10988 10988 10989 10989 10989 10989 10989 10988 10988 10988 10987 10986 10985 10984 10984 10983 10983 10982 10982 10982 10982 10982 10981 10981 10981 10980 10979 10979 10980 10981 10982 10983 10984 10984 10985 10985 10986 10987 10986 10985 10986 10987 10987 10988 10988 10989 10991 10991 10991 10992 10992 10993 10995 10996 10995 10996 10997 10999 10999
10924 10928 10932 10936 10940 10944 10947 10950 10953 10956 10959 10962 10964 10966 10968 10970 10972 10974 10975 10976 10978 10979 10980 10981 10982 10983 10984 10984 10985 10985 10985 10986 10987 10986 10986 10986 10986 10986 10985 10984 10983 10982 10981 10981 10980 10979 10979 10979 10979 10979 10979 10979 10978 10978 10977 10977 10977 10978 10979 10980 10981 10982 10982 10983 10983 10984 10985 10984 10983 10983 10984 10985 10985 10986 10987 10988 10988 10988 10989 10988 10990 10993 10992 10992 10993 10994 10996 10996
10920 10924 10929 10932 10936 10940 10943 10947 10950 10953 10956 10958 10961 10963 10966 10968 10970 10971 10972 10973 10975 10976 10977 10978 10979 10980 10981 10981 10982 10982 10983 10984 10984 10984 10984 10984 10983 10983 10982 10981 10980 10979 10979 10978 10977 10976 10976 10976 10977 10977 10977 10976 10976 10975 10974 10974 10975 10976 10977 10977 10978 10979 10980 10980 10980 10981 10982 10981 10980 10981 10981 10982 10983 10984 10985 10984 10984 10985 10985 10985 10988 10989 10988 10989 10991 10992 10993 10992
10917 10921 10925 10929 10932 10936 10940 10943 10946 10949 10952 10955 10958 10960 10963 10965 10967 10968 10969 10970 10972 10973 10974 10975 10977 10977 10977 10978 10979 10979 10980 10981 10981 10981 10981 10981 10981 10980 10980 10979 10978 10977 10976 10975 10974 10974 10973 10973 10974 10974 10974 10973 10973 10972 10972 10971 10972 10973 10973 10974 10975 10976 10977 10976 10977 10978 10979 10979 10978 10979 10979 10980 10981 10981 10981 10981 10980 10982 10983 10982 10984 10986 10985 10987 10988 10988 10989 10989
10913 10917 10921 10925 10929 10933 10937 10940 10943 10946 10949 10952 10955 10958 10960 10962 10964 10965 10966 10967 10969 10970 10971 10972 10974 10974 10974 10975 10976 10977 10978 10979 10979 10979 10979 10979 10978 10978 10977 10976 10975 10974 10973 10972 10972 10971 10971 10971 10972 10972 10971 10970 10969 10969 10969 10969 10969 10969 10970 10970 10971 10973 10973 10973 10974 10976 10976 10976 10975 10975 10976 10977 10978 10978 10978 10977 10977 10979 10980 10979 10981 10983 10984 10984 10984 10985 10986 10986
10909 10913 10918 10922 10926 10929 10933 10936 10939 10943 10946 10949 10952 10955 10957 10959 10961 10962 10963 10964 10966 10967 10968 10969 10971 10971 10972 10973 10974 10974 10975 10976 10976 10976 10976 10976 10976 10975 10974 10973 10972 10972 10971 10970 10969 10969 10969 10969 10969 10969 10968 10967 10967 10966 10966 10966 10965 10966 10967 10968 10968 10969 10970 10970 10971 10973 10973 10972 10971 10972 10973 10974 10975 10975 10974 10975 10975 10975 10977 10977 10978 10981 10982 10982 10982 10982 10983 10982
10904 10909 10914 10918 10922 10926 10930 10933 10937 10940 10944 10946 10949 10952 10954 10956 10958 10960 10961 10962 10963 10964 10965 10966 10968 10968 10969 10970 10971 10972 10973 10973 10973 10973 10973 10973 10973 10973 10972 10971 10970 10969 10968 10968 10967 10967 10967 10967 10967 10966 10965 10964 10964 10963 10963 10963 10962 10963 10964 10966 10966 10966 10967 10968 10968 10970 10970 10969 10968 10968 10969 10971 10971 10971 10971 10973 10974 10973 10973 10974 10976 10978 10979 10979 10979 10980 10980 10979
10900 10906 10911 10915 10919 10923 10926 10930 10934 10938 10941 10944 10947 10950 10952 10954 10956 10957 10958 10960 10961 10961 10962 10964 10965 10966 10967 10968 10969 10970 10970 10970 10970 10970 10971 10971 10971 10971 10969 10968 10968 10967 10966 10965 10965 10965 10964 10964 10964 10963 10962 10962 10961 10960 10959 10960 10959 10960 10961 10962 10963 10963 10963 10964 10965 10966 10966 10966 10965 10965 10966 10967 10968 10968 10969 10970 10972 10971 10969 10971 10973 10974 10975 10975 10976 10977 10978 10976
10897 10902 10907 10912 10916 10920 10924 10927 10931 10935 10938 10941 10944 10947 10949 10951 10953 10954 10956 10957 10958 10959 10960 10961 10962 10964 10965 10965 10966 10966 10966 10967 10967 10968 10968 10969 10969 10968 10967 10967 10966 10965 10964 10963 10963 10962 10962 10962 10961 10960 10959 10959 10959 10957 10957 10956 10956 10957 10958 10958 10959 10959 10960 10961 10962 10962 10963 10963 10962 10962 10963 10964 10965 10965 10966 10966 10968 10969 10966 10967 10969 10970 10972 10972 10973 10975 10975 10975
10893 10898 10903 10908 10913 10917 10921 10925 10928 10932 10936 10939 10942 10944 10946 10948 10950 10952 10954 10955 10955 10956 10958 10959 10961 10962 10962 10962 10962 10963 10964 10965 10965 10965 10966 10966 10966 10965 10965 10964 10963 10963 10962 10961 10960 10960 10959 10959 10958 10957 10957 10957 10957 10956 10955 10954 10953 10953 10954 10955 10956 10955 10956 10957 10958 10958 10958 10959 10959 10959 10960 10961 10963 10963 10962 10962 10964 10965 10964 10963 10965 10967 10969 10970 10969 10971 10972 10973
10890 10895 10900 10905 10910 10914 10918 10922 10926 10929 10933 10936 10939 10941 10943 10945 10947 10949 10951 10953 10954 10954 10955 10957 10958 10958 10959 10960 10960 10961 10962 10963 10962 10962 10963 10964 10963 10962 10962 10962 10961 10961 10960 10959 10958 10957 10957 10957 10956 10955 10954 10954 10955 10954 10953 10952 10951 10951 10951 10952 10952 10952 10952 10952 10954 10955 10955 10956 10955 10955 10957 10958 10960 10960 10958 10958 10959 10960 10961 10961 10962 10963 10964 10965 10966 10967 10968 10971
10887 10892 10897 10902 10907 10911 10915 10919 10923 10927 10931 10934 10936 10938 10940 10943 10946 10948 10949 10951 10951 10952 10953 10955 10955 10956 10957 10958 10958 10958 10959 10960 10960 10960 10961 10961 10960 10960 10960 10959 10959 10958 10958 10957 10956 10955 10955 10954 10954 10953 10952 10952 10952 10952 10952 10951 10950 10950 10949 10950 10950 10949 10950 10950 10951 10952 10952 10953 10953 10952 10953 10955 10957 10957 10954 10954 10955 10956 10958 10958 10959 10959 10959 10961 10962 10962 10964 10967
10885 10890 10895 10899 10904 10908 10913 10917 10921 10925 10928 10931 10934 10936 10939 10942 10943 10945 10946 10948 10948 10950 10951 10952 10953 10954 10955 10955 10955 10956 10957 10957 10957 10957 10958 10958 10958 10957 10957 10957 10956 10956 10955 10954 10954 10953 10952 10951 10951 10951 10950 10950 10950 10950 10950 10949 10948 10948 10947 10947 10947 10946 10947 10948 10948 10949 10949 10948 10949 10949 10950 10951 10953 10952 10950 10951 10952 10953 10953 10955 10957 10956 10956 10958 10959 10958 10959 10962
10882 10887 10892 10897 10901 10906 10910 10915 10919 10922 10926 10929 10932 10934 10936 10938 10940 10942 10944 10945 10946 10948 10949 10950 10951 10952 10952 10952 10953 10954 10954 10955 10955 10955 10955 10956 10955 10955 10955 10955 10954 10954 10953 10952 10952 10951 10950 10949 10949 10948 10948 10948 10948 10947 10947 10947 10946 10946 10945 10944 10944 10944 10944 10945 10945 10945 10945 10944 10945 10945 10946 10948 10948 10948 10948 10948 10949 10949 10950 10951 10954 10953 10953 10955 10956 10956 10956 10956
10880 10885 10890 10895 10899 10904 10908 10913 10917 10920 10924 10927 10929 10931 10933 10935 10938 10940 10941 10943 10944 10945 10946 10947 10948 10949 10949 10950 10951 10951 10952 10952 10952 10952 10953 10953 10953 10953 10953 10952 10952 10952 10951 10950 10949 10948 10947 10946 10946 10946 10946 10945 10945 10944 10944 10944 10943 10942 10941 10941 10941 10940 10940 10941 10941 10941 10940 10940 10941 10941 10943 10944 10943 10943 10945 10944 10945 10946 10947 10948 10949 10949 10949 10949 10950 10953 10954 10954
10879 10884 10888 10893 10898 10902 10906 10911 10915 10918 10921 10923 10926 10928 10931 10933 10936 10937 10938 10940 10942 10943 10944 10945 10946 10946 10947 10948 10949 10949 10949 10949 10949 10950 10950 10950 10950 10950 10950 10950 10950 10949 10949 10948 10947 10946 10945 10944 10944 10944 10943 10943 10942 10941 10941 10940 10940 10939 10938 10937 10938 10936 10936 10937 10938 10939 10938 10936 10937 10938 10940 10941 10939 10940 10942 10941 10942 10943 10944 10945 10945 10945 10945 10944 10946 10950 10953 10953
10878 10883 10887 10892 10896 10900 10904 10908 10912 10915 10918 10921 10924 10927 10929 10931 10933 10935 10936 10938 10940 10941 10942 10943 10943 10944 10945 10946 10946 10946 10946 10947 10947 10947 10948 10948 10948 10948 10948 10948 10947 10947 10947 10946 10945 10943 10943 10942 10942 10942 10941 10941 10939 10938 10938 10937 10936 10936 10934 10934 10935 10933 10933 10934 10934 10936 10936 10933 10934 10935 10937 10938 10937 10938 10939 10937 10938 10940 10941 10943 10943 10941 10940 10941 10943 10947 10950 10951
10877 10882 10886 10890 10894 10898 10902 10906 10909 10912 10916 10919 10922 10924 10926 10928 10930 10932 10934 10936 10938 10939 10939 10940 10941 10942 10943 10943 10943 10944 10944 10944 10944 10945 10945 10946 10945 10945 10945 10945 10945 10945 10944 10944 10943 10942 10941 10941 10940 10939 10938 10938 10937 10935 10934 10934 10933 10933 10931 10931 10932 10930 10930 10931 10931 10932 10932 10931 10931 10931 10933 10935 10935 10936 10936 10935 10935 10937 10939 10941 10941 10938 10936 10938 10941 10944 10946 10948
10876 10880 10884 10888 10892 10896 10900 10904 10907 10911 10914 10917 10920 10922 10924 10926 10928 10930 10932 10934 10935 10936 10937 10938 10939 10939 10940 10941 10941 10941 10941 10941 10942 10943 10943 10943 10943 10943 10943 10943 10942 10942 10942 10941 10941 10940 10939 10939 10938 10937 10936 10935 10935 10933 10932 10931 10931 10931 10929 10927 10929 10928 10927 10928 10929 10929 10929 10929 10929 10928 10929 10932 10933 10934 10934 10933 10933 10935 10937 10938 10937 10936 10934 10935 10939 10941 10943 10946
10874 10878 10882 10887 10891 10895 10898 10902 10905 10909 10912 10915 10917 10919 10921 10923 10925 10927 10929 10931 10933 10934 10935 10936 10937 10937 10938 10938 10938 10938 10939 10940 10940 10940 10940 10941 10940 10940 10940 10940 10940 10939 10939 10939 10938 10938 10937 10937 10935 10934 10934 10933 10932 10931 10930 10928 10927 10927 10927 10925 10925 10925 10925 10925 10926 10926 10926 10926 10926 10925 10926 10929 10931 10932 10931 10932 10932 10933 10935 10934 10934 10934 10933 10932 10934 10938 10940 10943
10872 10877 10881 10885 10889 10893 10897 10900 10904 10907 10910 10912 10914 10916 10919 10921 10923 10925 10927 10929 10930 10931 10932 10934 10934 10935 10935 10935 10935 10936 10937 10937 10937 10937 10938 10938 10937 10937 10937 10937 10937 10937 10937 10936 10936 10935 10935 10934 10933 10932 10931 10930 10929 10928 10928 10926 10924 10924 10924 10923 10923 10922 10922 10923 10924 10923 10923 10924 10924 10923 10923 10925 10928 10929 10928 10929 10930 10930 10930 10929 10929 10930 10930 10929 10930 10934 10937 10940
10872 10876 10880 10884 10887 10891 10895 10899 10902 10905 10907 10910 10912 10914 10916 10918 10921 10923 10925 10926 10928 10929 10930 10932 10932 10932 10932 10933 10933 10934 10934 10934 10935 10936 10935 10935 10935 10935 10935 10935 10934 10934 10934 10934 10933 10933 10932 10932 10930 10929 10928 10927 10926 10925 10925 10923 10922 10922 10921 10921 10920 10920 10920 10921 10921 10921 10920 10921 10921 10921 10920 10921 10925 10927 10927 10926 10925 10926 10926 10925 10927 10928 10929 10929 10930 10932 10934 10937
10870 10874 10878 10882 10886 10889 10893 10896 10899 10902 10905 10907 10909 10912 10915 10917 10920 10922 10923 10924 10926 10927 10928 10929 10929 10929 10930 10930 10931 10931 10932 10932 10933 10933 10933 10932 10932 10932 10932 10932 10932 10932 10931 10931 10930 10930 10930 10929 10927 10926 10925 10924 10923 10923 10922 10921 10920 10920 10919 10919 10918 10918 10918 10919 10919 10918 10919 10918 10918 10918 10917 10917 10921 10923 10923 10922 10921 10923 10925 10925 10926 10927 10928 10930 10930 10931 10932 10934
10870 10874 10877 10881 10885 10888 10891 10894 10897 10900 10903 10905 10908 10911 10913 10916 10918 10919 10920 10922 10923 10924 10925 10926 10926 10927 10927 10928 10929 10929 10929 10930 10930 10930 10930 10930 10930 10929 10929 10929 10929 10929 10929 10928 10928 10928 10927 10925 10923 10923 10922 10921 10920 10920 10919 10919 10918 10918 10917 10916 10916 10916 10916 10917 10916 10916 10916 10916 10916 10915 10914 10914 10917 10918 10919 10920 10920 10922 10924 10923 10923 10924 10926 10927 10928 10928 10930 10931
10870 10874 10878 10881 10884 10887 10890 10893 10896 10898 10901 10903 10906 10909 10911 10914 10915 10916 10917 10920 10921 10921 10922 10923 10924 10925 10925 10926 10927 10927 10927 10927 10927 10927 10927 10927 10927 10926 10926 10926 10926 10926 10926 10925 10925 10925 10924 10922 10920 10920 10920 10918 10918 10917 10916 10917 10917 10916 10915 10914 10914 10914 10914 10914 10914 10914 10914 10914 10913 10912 10911 10912 10914 10915 10917 10917 10917 10917 10918 10919 10920 10921 10922 10924 10924 10925 10927 10928
10869 10873 10877 10880 10883 10886 10889 10892 10895 10897 10899 10902 10904 10907 10910 10912 10913 10914 10916 10917 10918 10919 10920 10921 10922 10922 10923 10924 10924 10924 10925 10925 10924 10924 10924 10924 10924 10923 10923 10923 10923 10923 10923 10922 10922 10921 10921 10920 10918 10918 10918 10916 10915 10915 10914 10915 10915 10914 10913 10912 10912 10912 10912 10912 10912 10912 10912 10912 10911 10910 10910 10910 10911 10914 10915 10914 10913 10914 10915 10917 10918 10919 10921 10921 10921 10922 10924 10925
10868 10871 10875 10878 10881 10884 10887 10890 10893 10895 10898 10901 10904 10906 10909 10911 10911 10913 10914 10915 10916 10918 10918 10919 10920 10920 10921 10921 10921 10922 10922 10922 10922 10921 10921 10921 10921 10921 10921 10920 10920 10920 10920 10920 10919 10917 10917 10917 10916 10916 10916 10914 10914 10914 10913 10913 10913 10912 10911 10910 10910 10910 10910 10910 10910 10910 10910 10910 10909 10908 10908 10908 10910 10912 10912 10910 10911 10914 10915 10916 10917 10918 10919 10920 10918 10919 10920 10921
10867 10871 10874 10877 10880 10883 10886 10889 10891 10894 10897 10901 10903 10905 10907 10909 10910 10911 10912 10913 10914 10915 10916 10917 10918 10918 10919 10919 10919 10919 10919 10919 10919 10918 10919 10918 10918 10918 10918 10917 10917 10917 10917 10917 10916 10915 10915 10914 10913 10914 10914 10913 10912 10912 10911 10911 10911 10910 10909 10909 10909 10909 10908 10909 10909 10908 10908 10908 10907 10907 10907 10907 10909 10910 10909 10909 10911 10913 10914 10914 10915 10915 10915 10916 10915 10914 10916 10917
10867 10870 10873 10876 10879 10882 10885 10888 10891 10894 10897 10900 10901 10903 10905 10907 10908 10909 10910 10911 10912 10913 10914 10914 10915 10916 10916 10916 10916 10916 10916 10916 10916 10915 10916 10915 10915 10915 10915 10914 10914 10914 10915 10914 10913 10913 10912 10911 10912 10912 10913 10912 10911 10911 10910 10910 10910 10909 10908 10908 10908 10908 10908 10907 10907 10907 10906 10906 10905 10905 10906 10906 10907 10907 10908 10908 10909 10910 10911 10912 10911 10910 10912 10913 10911 10911 10912 10913
10867 10870 10873 10876 10879 10882 10885 10888 10891 10894 10896 10897 10899 10901 10903 10905 10906 10907 10908 10909 10909 10910 10911 10912 10913 10913 10913 10913 10914 10913 10913 10913 10913 10912 10912 10912 10912 10912 10912 10912 10912 10912 10912 10911 10911 10911 10910 10910 10911 10911 10911 10911 10909 10909 10909 10909 10909 10908 10908 10908 10908 10907 10907 10907 10907 10906 10905 10905 10904 10903 10905 10906 10906 10906 10906 10907 10907 10908 10909 10909 10908 10908 10910 10910 10909 10909 10909 10909
10868 10871 10874 10877 10880 10883 10886 10888 10891 10893 10895 10897 10899 10900 10902 10903 10904 10905 10906 10906 10907 10908 10909 10910 10911 10910 10910 10911 10911 10910 10910 10910 10909 10909 10909 10910 10910 10909 10909 10910 10910 10909 10910 10909 10909 10909 10909 10909 10910 10910 10910 10909 10909 10909 10908 10908 10908 10908 10908 10907 10907 10907 10907 10906 10906 10905 10904 10904 10903 10902 10904 10905 10904 10904 10904 10904 10905 10906 10906 10905 10904 10905 10907 10907 10907 10908 10907 10907
10868 10872 10875 10877 10880 10883 10886 10888 10891 10893 10894 10896 10897 10898 10900 10901 10902 10903 10903 10904 10905 10906 10906 10907 10907 10907 10907 10908 10908 10907 10907 10907 10906 10906 10906 10907 10907 10906 10907 10907 10907 10907 10907 10907 10907 10908 10908 10909 10909 10909 10909 10908 10909 10909 10908 10908 10908 10908 10908 10907 10906 10906 10906 10906 10906 10905 10904 10903 10902 10902 10903 10903 10903 10902 10902 10902 10903 10904 10904 10903 10903 10904 10904 10904 10905 10906 10906 10905
10869 10872 10875 10878 10881 10883 10886 10888 10890 10892 10893 10894 10895 10896 10897 10898 10899 10900 10901 10901 10902 10902 10903 10904 10904 10904 10904 10904 10905 10905 10904 10904 10904 10903 10904 10904 10904 10904 10905 10905 10905 10905 10905 10906 10907 10907 10908 10908 10908 10908 10908 10908 10908 10908 10908 10908 10908 10907 10907 10906 10906 10906 10906 10905 10905 10904 10904 10903 10902 10901 10902 10903 10902 10902 10901 10901 10902 10902 10901 10901 10901 10902 10902 10902 10902 10902 10903 10903
10870 10873 10876 10878 10881 10883 10885 10887 10889 10890 10891 10891 10892 10894 10895 10896 10896 10897 10897 10898 10898 10899 10900 10900 10901 10901 10901 10901 10902 10902 10902 10901 10901 10901 10902 10903 10903 10903 10903 10903 10904 10904 10905 10906 10906 10907 10907 10907 10907 10907 10907 10907 10908 10908 10908 10908 10908 10907 10907 10906 10906 10906 10906 10905 10905 10904 10904 10903 10902 10901 10901 10902 10902 10901 10900 10900 10899 10898 10897 10897 10897 10897 10898 10898 10898 10899 10900 10901
10870 10873 10876 10878 10880 10882 10884 10885 10886 10887 10888 10889 10890 10891 10892 10893 10893 10893 10894 10894 10895 10895 10896 10897 10898 10899 10899 10899 10899 10900 10900 10900 10900 10900 10901 10902 10902 10902 10902 10902 10903 10904 10904 10905 10905 10906 10906 10906 10906 10907 10907 10907 10908 10908 10908 10908 10907 10907 10906 10906 10906 10906 10906 10905 10904 10904 10903 10902 10902 10901 10900 10900 10900 10900 10899 10898 10897 10895 10895 10894 10894 10894 10894 10894 10896 10896 10897 10899
10870 10873 10875 10877 10879 10880 10881 10883 10884 10885 10886 10887 10888 10889 10889 10890 10890 10890 10891 10892 10892 10893 10894 10895 10896 10897 10897 10897 10897 10898 10898 10899 10899 10900 10900 10901 10902 10902 10902 10902 10903 10904 10904 10904 10905 10906 10906 10906 10906 10906 10906 10906 10907 10907 10907 10907 10906 10906 10906 10906 10906 10906 10905 10904 10904 10903 10903 10902 10901 10900 10899 10898 10898 10898 10897 10896 10895 10894 10893 10892 10891 10891 10891 10892 10893 10893 10894 10895
10869 10871 10873 10875 10877 10878 10879 10881 10882 10884 10885 10886 10887 10887 10888 10888 10888 10889 10889 10890 10891 10891 10892 10893 10894 10895 10896 10896 10896 10897 10898 10899 10899 10899 10900 10901 10901 10901 10902 10903 10903 10903 10904 10904 10905 10905 10906 10906 10906 10906 10906 10905 10906 10906 10906 10906 10905 10905 10905 10905 10905 10905 10904 10904 10903 10902 10902 10901 10901 10900 10898 10897 10896 10896 10896 10895 10894 10893 10892 10891 10889 10888 10888 10889 10890 10890 10891 10892
10868 10870 10872 10874 10875 10877 10879 10880 10881 10883 10884 10885 10886 10886 10887 10887 10887 10888 10888 10889 10890 10891 10891 10892 10893 10894 10895 10895 10896 10897 10898 10898 10899 10899 10900 10900 10901 10901 10902 10902 10903 10903 10904 10904 10904 10905 10905 10905 10905 10906 10905 10905 10905 10905 10905 10905 10905 10904 10904 10904 10904 10904 10903 10902 10902 10901 10901 10900 10900 10899 10897 10897 10896 10894 10894 10894 10893 10892 10892 10892 10889 10887 10887 10887 10887 10888 10889 10890
10868 10870 10872 10873 10875 10877 10878 10879 10880 10881 10883 10884 10884 10885 10886 10886 10887 10887 10888 10889 10890 10890 10891 10891 10892 10893 10894 10895 10896 10897 10897 10898 10899 10899 10900 10901 10901 10901 10902 10902 10902 10903 10903 10904 10904 10905 10905 10905 10905 10905 10905 10904 10905 10904 10904 10904 10904 10904 10904 10903 10903 10902 10901 10901 10900 10900 10899 10899 10899 10898 10896 10896 10896 10895 10893 10892 10892 10892 10892 10891 10889 10886 10886 10885 10885 10885 10886 10886
10869 10871 10872 10873 10875 10876 10877 10878 10879 10880 10882 10883 10883 10884 10885 10886 10886 10887 10888 10889 10889 10890 10890 10891 10892 10893 10894 10895 10896 10897 10897 10898 10899 10899 10900 10900 10901 10901 10902 10902 10902 10903 10903 10903 10904 10904 10904 10905 10904 10904 10904 10904 10904 10904 10903 10903 10903 10903 10902 10902 10901 10901 10900 10899 10898 10898 10898 10897 10896 10896 10895 10894 10894 10894 10892 10890 10889 10889 10888 10887 10885 10883 10882 10882 10882 10882 10882 10881
10868 10870 10872 10873 10874 10876 10877 10878 10879 10879 10881 10882 10882 10883 10884 10885 10886 10886 10887 10888 10889 10889 10890 10891 10892 10893 10894 10894 10895 10896 10897 10898 10898 10899 10900 10900 10901 10901 10902 10902 10902 10903 10903 10903 10904 10904 10904 10904 10904 10904 10903 10903 10903 10903 10902 10902 10901 10901 10900 10899 10899 10898 10897 10896 10896 10895 10895 10895 10894 10894 10893 10892 10891 10890 10889 10887 10885 10884 10883 10883 10881 10879 10878 10877 10878 10878 10877 10876
10868 10869 10871 10872 10874 10875 10876 10878 10879 10879 10880 10881 10882 10883 10884 10884 10885 10886 10888 10888 10889 10889 10890 10891 10892 10892 10893 10894 10895 10896 10897 10898 10898 10899 10900 10900 10901 10901 10901 10902 10902 10902 10903 10903 10903 10903 10903 10903 10903 10903 10903 10902 10902 10901 10901 10900 10900 10899 10897 10896 10895 10895 10894 10893 10893 10892 10892 10891 10891 10890 10890 10890 10888 10886 10885 10883 10882 10881 10880 10879 10877 10875 10874 10873 10873 10872 10871 10870
10868 10869 10870 10871 10873 10874 10876 10877 10878 10879 10880 10881 10882 10882 10883 10884 10885 10886 10887 10888 10889 10889 10890 10891 10892 10893 10893 10894 10895 10896 10897 10898 10898 10899 10900 10900 10901 10901 10902 10902 10902 10902 10902 10903 10903 10903 10902 10902 10902 10902 10901 10901 10900 10900 10899 10899 10898 10897 10896 10894 10893 10893 10892 10891 10890 10890 10890 10888 10887 10886 10886 10886 10884 10882 10880 10879 10878 10877 10875 10874 10872 10870 10869 10868 10867 10866 10865 10864
10867 10869 10870 10871 10872 10874 10875 10876 10878 10879 10880 10881 10882 10883 10883 10884 10885 10886 10887 10888 10889 10890 10891 10891 10892 10893 10894 10895 10896 10897 10897 10898 10899 10899 10900 10900 10901 10901 10901 10902 10902 10902 10902 10902 10902 10902 10902 10901 10901 10901 10900 10899 10899 10899 10897 10897 10896 10895 10893 10891 10891 10891 10889 10888 10888 10888 10888 10886 10884 10883 10882 10881 10880 10878 10876 10875 10874 10872 10869 10867 10866 10865 10863 10862 10861 10860 10859 10857